Location: Tr�vern
(48.0333°N, 4.6000°W)
Time: 02:52:36
(UTC+00:00)

MOZ.5/SAFIR/RUBIN 5/SL-8 - Pass Details

Date: 14 July 2020
Orbit: 678 x 705 km, 98.1° (Epoch: 04 August)

Event Time Altitude Azimuth Distance (km) Brightness Sun altitude
Exits shadow 02:04:31 30° 194° (SSW) 1,254 4.5 -16.8°
Maximum altitude 02:06:41 56° 259° (W) 839 4.0 -16.7°
Drops below altitude 10° 02:11:24 10° 338° (NNW) 2,186 7.0 -16.3°
Sets 02:13:44 0° 343° (NNW) 3,110 7.9 -16.2°
